Погода Баку

Погода Баку : погода сейчас, прогноз погоды и архив. Всё, что Вы хотите узнать о погоде Баку!

Поиск расширенной информации на нашем сайте:

Другие новости

Новости СМИ2

Главная страница сайта

Новости сайта

03.07.2017

Напоминаем, что на нашем специализированном сайте Метеоцентр.Азия вы можете получить высокодетализированные автоматические прогнозы погоды по пунктам России, СНГ и мира в авиационном формате (включающие направление и скорость ветра, видимость, явления погоды, количество и форму облачности, нижнюю и верхнюю границу облачности).


Погода Баку - сегодня

Время (UTC), дата Ветер
(°,м/с) 
Видим.   Явления Облачность Т
(°С)
Тd
(°С)
f(%) Тe
(°С)
Pmin
(гПа)
dP
(гПа)
Po
(мм)
O2
(г/м3)
Тmin Tmax R s Состояние
почвы
15 20.05.18 150 (ЮВ) 10 км    6/0 верхняя 
[Ci fib]
+25.8 +9.4 35 +26  1014.1  -0.2  761  278           
18 20.05.18 130 (ЮВ) 10 км    ясно 
+21 +15.5 71 +30  1014.9  0.8  761  281    +31.6       
21 20.05.18 120 (ЮВ) 10 км    ясно 
+19.5 +16 80 +31  1014.4  -0.5  761  282           
00 21.05.18 110 (В) 10 км    ясно 
+18.1 +16.1 88 +29  1013.7  -0.7  760  283           
03 21.05.18 140 (ЮВ) 10 км    8/0 средняя 
[Ac As]
+20.4 +12.8 62 +25  1014.2  0.5  761  282           
06 21.05.18 140 (ЮВ) 10 км    8/0 средняя 
[Ac As]
+30 +0.4 15 +30  1014.7  0.5  761  276  +16.9         
09 21.05.18 140 (ЮВ) 10 км    10/0 средняя 
[Ac As]
+30.6 +2.1 16 +31  1014.5  -0.2  761  275           
12 21.05.18 150 (ЮВ) 10 км    4/0 средняя 
[Ac As]
+31.9 +1.7 15 +32  1013.4  -1.1  760  273           
15 21.05.18 110 (В) 10 км    ясно 
+28.6 +6.4 25 +29  1013.2  -0.2  760  276           
18 21.05.18 тихо ()   10 км    ясно 
+22.9 +14.7 60 +31  1015  1.8  761  279    +32.5       
21 21.05.18 260 (З) 10 км    ясно 
+19.9 +15.7 77 +31  1014.8  -0.2  761  282           
00 22.05.18 300 (СЗ) 10 км    ясно 
+20 +13.7 67 +26  1015.5  0.7  762  283           
03 22.05.18 290 (З) 10 км    ясно 
+22.4 +18.6 79 +37  1016.7  1.2  763  279           
06 22.05.18 310 (СЗ) 12  10 км    6/0 верхняя 
[Ci fib]
+24 +15.2 58 +33  1018.5  1.8  764  279  +17.6         
09 22.05.18 280 (З) 10 км    ясно 
+26.3 +14.7 49 +34  1018.9  0.4  764  277           
12 22.05.18 340 (С) 10 км    ясно 
+26.7 +12 40 +30  1018  -0.9  764  278           
15 22.05.18 300 (СЗ) 10 км    ясно 
+23.6 +12.8 51 +28  1018.5  0.5  764  280           
18 22.05.18 280 (З) 10 км    ясно 
+18.9 +14.6 76 +28  1018.9  0.4  764  284    +27.5       
21 22.05.18 270 (З) 10 км    ясно 
+16.3 +14.2 87 +25  1018.5  -0.4  764  287           
00 23.05.18 280 (З) 10 км    ясно 
+16.7 +14.8 89 +25  1018.6  0.1  764  286           
03 23.05.18 270 (З) 10 км    ясно 
+19.7 +14.4 71 +28  1018.6  764  283           
06 23.05.18 310 (СЗ) 10 км    ясно 
+27.2 +12 39 +31  1019.2  0.6  764  277  +15.7         
09 23.05.18 020 (С) 10 км    ясно 
+26.8 +12.8 42 +32  1019.2  764  277           
12 23.05.18 010 (С) 10 км    ясно 
+28.7 +16.5 48 +40  1018  -1.2  764  274           
15 23.05.18 020 (С) 10 км    ясно 
+27.2 +16 50 +37  1017.1  -0.9  763  276           
Время (UTC), дата Ветер
(°,м/с) 
Видим.   Явления Облачность Т
(°С)
Тd
(°С)
f(%) Тe
(°С)
Pmin
(гПа)
dP
(гПа)
Po
(мм)
O2
(г/м3)
Тmin Tmax R s Состояние
почвы

Для получения пояснительной информации подведите курсор к названию столбца.

ПОГОДА Баку - архив

Всё, что Вы хотите узнать о погоде Баку - удобно и подробно!

Выберите нужную дату (начиная с 1 января 2015* года) и нажмите кнопку "Найти".
Будут отображены архивные сводки погоды по пункту Баку, начиная с указанной даты.


Отображать данные в формате CSV (для использования в таблицах Excel)


Внимание! Наш архив погоды предназначен исключительно для личного некоммерческого использования в познавательных целях. Если Вам необходимы официальные справки о состоянии погоды (для производственных, юридических, коммерческих и т.п. целей), обращайтесь в органы Росгидромета.

*Примечание: данная дата относится к архиву по метеостанциям СССР (Россия, СНГ, Балтия).
Архив по метеостанциям Зарубежной Европы и Азии (кроме Китая) хранится 10 дней, по другим регионам земного шара (Китай, Африка, Америка, Австралия, Океания) - 1 день.

Баку - район местоположения метеостанции


Название, широта, долгота, высота метеостанции:
Баку (Гейдар Алиев) 40.4°ш. 50.1°д. -1 м над ур. моря [Азербайджан]

Дополнительная информация

В oтличие oт бoльшинства пoгoдных сайтoв мы публикуем пoдрoбную метеoинфoрмацию в детальнoм прoфессиoнальнoм фoрмате.

Характеристики температуры и влажнoсти вoздуха измеряются на высoте 2 м в тени вдали oт зданий и деревьев.
Скoрoсть ветра измеряется на высoте 10 м (на урoвне рoста челoвека скoрoсть ветра ниже в 1.5-2 раза). Если метеoстанция нахoдится в гoрoде или в лесу, тo скoрoсть ветра занижена на 2-4 м/с пo сравнению с oткрытым местoм. Скoрoсть ветра над акватoриями крупных рек и oзёр, а также на вершинах хoлмoв на 2-5 м/с выше, чем в oбычных услoвиях.
Атмoсфернoе давление в разных тoчках местнoсти мoжет значительнo oтличаться oт давления на метеoстанции, в зависимoсти oт услoвий рельефа (при пoдъёме на 10 м давление пoнижается примернo на 1 мм рт.ст.).